Погода в Можайке

Россия / Республика Бурятия     52°24′42″N   110°47′17″E
темп.,
°C
ветер,
м/с
пор.,
м/с
влажн.,
%
обл.,
%
осадки,
мм/ч
давл.,
гПа
погр.,
м
24 мая, вт
вт2423:00+7ссз4880100 0.5 1017234
02:00+5ссз348532 0.5 102069
05:00+4ссз238323 0.0 102350
08:00+12з12481 0.0 1023577
11:00+18с12265 0.0 10222420
14:00+21сз23185 0.0 10202867
17:00+21сз34175 0.0 10193137
20:00+16ссз48310 0.0 1021220
25 мая, ср
ср2523:00+10ссз22400 0.0 102324
02:00+8ссз22430 0.0 102322
05:00+7ссз11425 0.0 102312
08:00+14зюз2326100 0.0 1022372
11:00+20зюз3516100 0.0 10192015
14:00+23зюз4513100 0.0 10153295
17:00+23сз441444 0.0 10123802
20:00+17ссз35295 0.0 1013105
26 мая, чт
чт2623:00+11ссз22400 0.0 101315
02:00+9ссз11440 0.0 101210
05:00+8сз1146100 0.0 101110
08:00+15юз2231100 0.0 1008354
11:00+21юз35205 0.0 10042152
14:00+24юз6816100 0.0 9993892
17:00+23сз78173 0.0 9983117
20:00+16сз6114223 0.0 1000835
27 мая, пт
пт2723:00+11зсз513580 0.0 1001681
02:00+9зсз410670 0.0 1001455
05:00+6з27860 0.0 1002181
08:00+11зсз812493 0.0 10001290
11:00+13зсз793830 0.1 10002211
14:00+14сз89296 0.1 9992535
17:00+13сз89304 0.0 10001934
20:00+8сз610491 0.0 1002631
28 мая, сб
сб2823:00+4зсз2364100 0.0 100475
02:00+5ссз2571100 0.2 1005168
05:00+2сз359198 0.1 1006187
08:00+6зсз336988 0.2 1005706
11:00+10сз5543100 0.5 10041952
14:00+11сз863678 0.6 10041924
17:00+10сз873337 0.0 10041932
20:00+7сз4746100 0.0 10071059